Overview Statistics Trail Chart Weather Telemetry Raw packets
 

This is the latest recevied weather packets stored in our database for station/object 4S6DRJ-13. If no packets are shown the sender has not sent any weather packets the latest 10 day(s).

<< 308 309 310 311 312 313 314 >>
Time Temp. Humidity Pressure Rain* Wind** Luminosity Snow
1788011765 28.33° C 83% 1009.5 hPa 0 mm 0 m/s 0 W/m² -
1788011704 28.33° C 83% 1009.5 hPa 0 mm 0.45 m/s, 224° 0 W/m² -
1788011643 28.33° C 83% 1009.4 hPa 0 mm 2.24 m/s, 206° 0 W/m² -
1788011582 28.33° C 83% 1009.4 hPa 0 mm 2.68 m/s, 204° 0 W/m² -
1788011521 28.33° C 83% 1009.4 hPa 0 mm 1.34 m/s, 316° 0 W/m² -
1788011460 28.33° C 83% 1009.4 hPa 0 mm 0.89 m/s, 249° 0 W/m² -
1788011399 28.33° C 83% 1009.4 hPa 0 mm 1.34 m/s, 251° 0 W/m² -
1788011338 28.33° C 83% 1009.5 hPa 0 mm 0.89 m/s, 260° 0 W/m² -
1788011277 28.33° C 83% 1009.4 hPa 0 mm 1.79 m/s, 198° 0 W/m² -
1788011216 28.33° C 83% 1009.4 hPa 0 mm 0.45 m/s, 215° 0 W/m² -
1788011155 28.33° C 83% 1009.4 hPa 0 mm 1.34 m/s, 232° 0 W/m² -
1788011094 28.33° C 83% 1009.3 hPa 0 mm 0.89 m/s, 132° 0 W/m² -
1788011034 28.33° C 83% 1009.5 hPa 0 mm 2.24 m/s, 236° 0 W/m² -
1788010972 28.33° C 83% 1009.3 hPa 0 mm 0.45 m/s, 232° 0 W/m² -
1788010911 28.33° C 83% 1009.3 hPa 0 mm 1.79 m/s, 223° 0 W/m² -
1788010851 28.33° C 83% 1009.4 hPa 0 mm 0.45 m/s, 225° 0 W/m² -
1788010790 28.33° C 83% 1009.3 hPa 0 mm 0.89 m/s, 218° 0 W/m² -
1788010728 28.33° C 83% 1009.5 hPa 0 mm 0.89 m/s, 229° 0 W/m² -
1788010667 28.33° C 83% 1009.5 hPa 0 mm 1.34 m/s, 227° 0 W/m² -
1788010606 28.33° C 83% 1009.4 hPa 0 mm 1.79 m/s, 242° 0 W/m² -
1788010546 28.33° C 83% 1009.4 hPa 0 mm 0.89 m/s, 220° 0 W/m² -
1788010484 28.33° C 83% 1009.4 hPa 0 mm 0 m/s 0 W/m² -
1788010424 28.33° C 83% 1009.3 hPa 0 mm 1.79 m/s, 239° 0 W/m² -
1788010362 28.33° C 83% 1009.3 hPa 0 mm 0.45 m/s, 171° 0 W/m² -
1788010300 28.33° C 82% 1009.5 hPa 0 mm 1.79 m/s, 324° 0 W/m² -

* Rain latest hour (hover to see other rain measurements)
** Current wind speed in m/s (hover to see current wind gust speed)